Regional Weather Roundup
Issued by NWS Raleigh/Durham, NC

Home | Current Version | Previous Version | Text Only | Print | Product List | Glossary On
Versions: 1 2 3 4 5 6 7 8 9 10 11 12 13 14 15 16 17 18 19 20 21 22 23 24 25 26 27 28 29 30 31 32 33 34 35 36 37 38 39 40 41 42 43 44 45 46 47 48 49 50
000
ASUS42 KRAH 300610
RWRRAH
NORTH CAROLINA WEATHER ROUNDUP
NATIONAL WEATHER SERVICE RALEIGH NC
200 AM EDT THU JUL 30 2015

NOTE: "FAIR" INDICATES FEW OR NO CLOUDS BELOW 12,000 FEET WITH NO
SIGNIFICANT WEATHER AND/OR OBSTRUCTIONS TO VISIBILITY.

NCZ001-053-055-056-065-067-300700-
WESTERN NORTH CAROLINA

CITY           SKY/WX    TMP DP  RH WIND       PRES   REMARKS
ASHEVILLE      PTCLDY    71  69  93 CALM      30.08F
JEFFERSON      FOG       67  67 100 SW3       30.14S VSB 3/4
MORGANTON      CLOUDY    73  72  98 NW3       30.07R
HICKORY        PTCLDY    75  71  87 N5        30.01F
RUTHERFORDTON  CLEAR     75  74  99 CALM      30.01F
MOUNT AIRY     PTCLDY    74  72  92 CALM      30.03F FOG
BOONE          LGT RAIN  68  68  98 CALM      30.16S
$$

NCZ021-022-025-041-071-084-088-300700-
CENTRAL NORTH CAROLINA

CITY           SKY/WX    TMP DP  RH WIND       PRES   REMARKS
CHARLOTTE      CLOUDY    79  73  82 CALM      29.99F
GREENSBORO     CLOUDY    78  75  90 CALM      29.99F
WINSTON-SALEM  CLOUDY    78  75  90 CALM      30.01F
RALEIGH-DURHAM PTCLDY    78  70  76 SE6       29.99F
FORT BRAGG     CLEAR     79  69  71 S1        29.98S
FAYETTEVILLE   CLEAR     77  71  82 SW3       29.98S
BURLINGTON     MOCLDY    77  73  87 CALM      29.99F
LAURINBURG     CLEAR     75  69  81 CALM      29.99S
$$

NCZ011-015-027-028-043-044-047-080-103-300700-
NORTHEASTERN NORTH CAROLINA

CITY           SKY/WX    TMP DP  RH WIND       PRES   REMARKS
ROCKY MT-WILSO CLEAR     73  71  93 CALM      29.98F
GREENVILLE     CLEAR     73  72  94 CALM      29.99F
WASHINGTON     CLEAR     71  69  95 E3        29.98F
ELIZABETH CITY CLEAR     73  70  90 CALM      29.98F
MANTEO         PTCLDY    76  73  90 E6        29.98F
CAPE HATTERAS  CLEAR     80  77  90 E3        29.96F
$$

NCZ078-087-090-091-093-098-101-300700-
SOUTHEASTERN NORTH CAROLINA

CITY           SKY/WX    TMP DP  RH WIND       PRES   REMARKS
LUMBERTON      CLEAR     76  70  82 CALM      29.98R
GOLDSBORO      CLEAR     74  72  91 S1        29.95F
KINSTON        CLEAR     72  70  92 CALM      29.97F
KENANSVILLE    CLEAR     71  69  95 CALM      29.98F
NEW BERN       CLEAR     74  71  91 N3        29.97F
CHERRY POINT   CLEAR     78  75  90 NE3       29.95F
BEAUFORT       CLEAR     77  76  96 NE5       29.94F
JACKSONVILLE   CLEAR     76  71  85 NW7       29.95F
WILMINGTON     CLEAR     74  72  93 N3        29.96F
$$




USA.gov is the U.S. government's official web portal to all federal, state and local government web resources and services.